Location: Unspecified
(0.0000°N, 0.0000°E)
Time: 20:58:39
(UTC+00:00)

N. Korean satellite - Visible Passes

Search period start: 14 August 2018 00:00
Search period end: 24 August 2018 00:00
Orbit: 457 x 513 km, 97.2° (Epoch: 13 August)

Date Brightness Start Highest point End Pass type
(mag) Time Alt. Az. Time Alt. Az. Time Alt. Az.
15 Aug 10.2 19:03:12 10° WSW 19:03:46 10° WSW 19:04:19 10° W visible
16 Aug 9.8 05:16:46 10° ENE 05:18:17 12° ESE 05:19:49 10° SE visible
16 Aug 9.1 18:36:37 10° SSW 18:39:39 25° WSW 18:42:38 10° NW visible
19 Aug 9.0 05:35:58 10° NE 05:38:59 27° ESE 05:42:04 10° SSE visible
19 Aug 10.0 18:59:07 10° WSW 19:00:20 11° WSW 19:01:34 10° W visible
20 Aug 10.0 05:13:44 10° E 05:14:51 11° ESE 05:15:58 10° ESE visible
20 Aug 8.9 18:33:05 10° SSW 18:36:13 27° WSW 18:39:17 10° NW visible
23 Aug 9.2 05:32:34 10° NE 05:35:31 24° ESE 05:38:31 10° SSE visible
23 Aug 9.8 18:55:16 10° SW 18:56:53 13° WSW 18:58:29 10° WNW visible
